Location: Igri�s
(42.2144°N, 0.4320°W)
Time: 18:19:50
(UTC+00:00)

Lacrosse 5 - Pass Details

Date: 13 August 2020
Orbit: 717 x 720 km, 57.0° (Epoch: 11 August)

Event Time Altitude Azimuth Distance (km) Brightness Sun altitude
Rises 22:18:44 0° 307° (NW) 3,126 6.2 -28.3°
Reaches altitude 10° 22:21:15 10° 300° (WNW) 2,202 5.1 -28.5°
Enters shadow 22:24:47 33° 262° (W) 1,202 3.1 -28.8°
